RH
25 26 25 26 27 32 35 37 39 40 44 44 46 50 59 68 69 66 63 67 75 80 82 85 85 86 80 75 65 56 51 38 28 21 16 15 15 15 17 20 21 25 29 33
25 25 24 24 25 28 30 32 36 38 43 45 53 57 64 67 63 63 71 75 78 82 83 88 88 82 77 73 61 56 43 30 26 22 15 15 16 17 18 20 20 23 25 29
29 27 25 35 32 32 33 36 35 39 42 48 54 58 61 65 69 72 73 75 82 86 90 89 83 82 76 67 61 50 34 28 27 20 15 17 16 17 19 19 18 20 23 27
36 32 41 36 35 36 38 42 42 45 46 47 48 50 56 60 63 67 79 87 90 93 92 85 84 80 74 66 54 42 28 27 26 15 16 16 15 15 17 17 14 15 20 28
42 43 38 39 43 45 44 47 45 44 44 43 42 46 52 58 65 73 86 93 95 95 88 86 84 78 71 59 49 35 28 28 18 16 16 14 12 12 13 13 11 13 18 27
52 51 47 48 46 44 42 51 43 38 40 44 52 60 66 75 84 87 93 97 97 93 91 86 79 75 64 56 42 32 28 22 15 16 14 11 10 10 9 7 7 10 18 32
54 57 53 49 46 40 38 34 36 40 44 46 52 60 70 81 88 96 98 97 95 93 90 86 77 69 61 50 36 27 24 15 15 15 14 12 11 10 10 8 8 11 20 33
53 57 52 46 36 33 36 34 35 42 46 54 61 70 77 87 95 97 96 96 94 95 86 77 74 65 58 40 29 26 19 17 16 16 15 13 12 12 11 10 8 9 16 27
48 51 46 42 40 38 38 39 43 45 49 55 64 71 79 88 96 96 96 96 96 88 79 77 71 62 45 33 25 23 18 20 22 22 20 16 14 13 13 12 10 9 12 19
46 51 48 42 48 43 38 39 43 48 55 60 68 75 82 83 91 96 97 96 87 83 82 77 65 53 38 28 26 23 22 22 24 24 23 20 16 15 15 15 13 11 11 14
49 47 45 47 48 45 39 40 46 51 58 66 69 73 76 81 91 93 92 89 85 86 81 69 63 45 32 28 26 26 24 23 25 26 26 22 19 17 17 17 16 13 13 14
42 43 48 49 45 40 39 43 49 53 58 61 64 67 69 80 84 83 86 85 87 82 76 63 52 37 30 30 28 22 22 23 24 26 27 26 23 20 19 18 18 16 14 12
40 43 49 45 43 41 43 49 53 56 57 62 64 68 75 85 84 85 83 83 79 75 65 53 43 35 30 24 23 23 22 21 22 26 27 27 26 23 22 20 19 19 16 14
41 48 48 45 42 43 50 54 57 61 63 65 69 76 83 78 76 77 74 74 73 66 53 42 34 24 20 22 24 22 21 20 21 24 26 27 28 26 23 22 21 21 19 17
42 48 48 49 49 51 57 60 63 65 66 69 73 76 74 73 70 69 67 65 61 50 37 32 27 22 19 22 23 23 21 19 20 23 25 27 29 27 24 21 23 22 22 20
47 46 50 52 53 56 59 62 65 68 71 72 72 69 67 64 59 56 55 52 45 37 30 30 26 20 20 22 25 23 20 19 21 23 24 24 27 29 26 23 20 22 23 23
50 53 52 52 56 58 62 66 68 72 73 72 67 63 59 52 51 51 43 36 34 30 29 29 25 20 21 25 26 22 19 19 20 22 23 22 23 26 29 26 23 20 20 23
48 50 52 56 59 64 68 70 75 78 73 67 60 55 52 48 42 35 33 32 30 29 31 30 25 21 21 26 29 26 21 20 19 21 21 22 21 23 25 28 26 24 21 19
54 54 55 57 61 67 67 72 74 71 65 59 54 50 44 36 29 28 29 31 31 31 32 29 24 20 22 25 28 28 24 20 20 19 21 23 22 22 23 25 27 28 25 22
54 56 57 58 62 66 65 69 67 61 57 52 46 40 32 24 23 26 27 29 31 32 31 29 24 21 21 25 29 28 26 22 21 19 20 22 23 23 24 25 25 26 29 27
56 58 60 60 64 66 64 65 61 57 49 44 36 28 22 21 22 24 26 28 31 32 34 32 28 23 22 23 27 29 28 25 22 19 19 21 25 26 26 27 27 26 25 28
60 61 60 62 61 59 63 61 56 48 39 34 26 22 21 21 22 24 25 28 31 33 36 38 32 26 25 24 26 31 30 28 25 23 19 19 21 26 29 30 30 28 27 26
59 59 60 55 55 59 61 54 46 37 32 24 21 20 20 21 23 24 26 30 32 34 37 37 33 30 26 27 28 33 31 29 29 28 25 22 22 21 24 30 32 33 30 27
57 55 53 54 60 57 52 45 38 34 28 22 21 21 21 22 23 26 29 32 33 34 36 34 32 30 24 26 27 31 36 34 32 33 32 30 25 25 26 23 25 30 34 33
53 54 55 61 59 52 43 38 35 30 23 22 22 22 24 25 26 27 29 32 34 34 35 33 32 27 21 21 24 25 30 34 37 40 41 40 35 29 26 26 27 27 27 29
56 59 65 65 58 45 39 33 28 22 21 20 20 23 26 27 29 28 29 33 35 34 31 33 29 25 22 19 19 21 23 30 34 39 41 41 42 39 34 30 29 29 29 29
64 69 68 62 49 38 31 29 25 23 22 20 20 21 23 26 29 30 31 34 35 34 30 28 26 24 20 20 20 22 25 27 31 32 31 32 38 40 36 32 28 26 27 27